Regional Weather Roundup
Issued by NWS

Home | Current Version | Previous Version | Graphics & Text | Print | Product List | Glossary On
Versions: 1 2 3 4 5 6 7 8 9 10 11 12 13 14 15 16 17 18 19 20 21 22 23 24 25 26 27 28 29 30 31 32 33 34 35 36 37 38 39 40 41 42 43 44 45 46 47 48
000
ASUS45 KBOU 250210
RWRCO

WEATHER ROUNDUP FOR COLORADO
NATIONAL WEATHER SERVICE DENVER/BOULDER CO
800 PM MDT TUE APR 24 2018

NOTE: "FAIR" INDICATES FEW OR NO CLOUDS BELOW 12000 FEET WITH NO
SIGNIFICANT WEATHER AND/OR OBSTRUCTIONS TO VISIBILITY.

COZ001>005-013-030-031-250300-
...NORTHWEST COLORADO...

CITY           SKY/WX    TMP DP  RH WIND       PRES   REMARKS
CRAIG          FAIR      42  22  44 W12       30.33R
HAYDEN         FAIR      41  23  48 W9        30.32R
MEEKER         FAIR      44  21  40 N13       30.33R
RANGELY        FAIR      50  20  30 NE24      30.31R
RABBIT EARS PA LGT SNOW  27  23  86 N6        30.35S VSB 1   WCI  20
STEAMBOAT SPGS CLOUDY    42  23  48 E10       30.30R
WALDEN         MOCLDY    30  16  55 NE8       30.37R WCI  23
$$

COZ006>008-011-250300-
...WEST CENTRAL VALLEYS...

CITY           SKY/WX    TMP DP  RH WIND       PRES   REMARKS
GRAND JUNCTION FAIR      58  18  21 NE20      30.21R
MONTROSE       FAIR      57  16  20 NW17      30.23R
EAGLE          FAIR      50  11  20 W10       30.27R
RIFLE          FAIR      53  19  26 N14G22    30.26R
DELTA          FAIR      61   9  12 N18G28    30.20R
NUCLA          FAIR      59  14  17 NW16      30.22R
$$

COZ017>023-064>068-250300-
...SOUTHWEST COLORADO...

CITY           SKY/WX    TMP DP  RH WIND       PRES   REMARKS
DURANGO        FAIR      59  28  30 N10       30.10S
CORTEZ         FAIR      65  22  19 N15G21    30.11R
PAGOSA SPRINGS FAIR      58  22  24 NW3       30.18R
TELLURIDE      MOCLDY    45  23  41 NE9       30.30S
WOLF CREEK PAS CLOUDY    36  23  60 W8        30.42R
$$

COZ009-010-012-014-032>034-037-058>063-250300-
...CENTRAL COLORADO...

CITY           SKY/WX    TMP DP  RH WIND       PRES   REMARKS
ASPEN          FAIR      46  12  25 NW10G21   30.26R
BUENA VISTA    LGT SNOW  32  30  94 E7        30.34R VSB 3/4 WCI  25
COPPER MTN     NOT AVBL
BERTHOUD PASS  CLOUDY    18   9  68 N17G28    30.35R WCI   2
COTTONWOOD PAS SNOW      32  32 100 CALM      30.33S VSB 1/4
GUNNISON       CLOUDY    49  20  31 NW8       30.24R
GRANBY         FAIR      34  22  60 N8        30.33R WCI  27
KREMMLING      FAIR      41  28  60 W8        30.33R
LEADVILLE      FAIR      33  21  61 N10G20    30.29R WCI  25
MONARCH PASS   CLOUDY    21  19  93 NE12      30.45R WCI   9
SALIDA         CLOUDY    33  30  88 E12       30.42R WCI  24
SUNLIGHT       FAIR      28  12  50 W6G21     30.40R WCI  22
WILKERSON PASS SNOW     N/A N/A N/A E7        30.37R VSB 1/4
$$

COZ069>075-250300-
...SAN LUIS VALLEY/SANGRE DE CRISTO MOUNTAINS...

CITY           SKY/WX    TMP DP  RH WIND       PRES   REMARKS
ALAMOSA        CLOUDY    43  28  55 E7        30.16R
DEL NORTE      CLOUDY    51  33  49 SE7       30.19R
LA VETA PASS   LGT SNOW  23  21  93 MISG      30.44R VSB 1
SAGUACHE       NOT AVBL
$$

COZ035-036-038>040-250300-
...NORTHERN COLORADO FRONT RANGE...

CITY           SKY/WX    TMP DP  RH WIND       PRES   REMARKS
DENVER INTL AP CLOUDY    38  32  79 NW12      30.41R
AURORA         FLURRIES  36  35  99 NW8       30.41R
FRONT RANGE AP CLOUDY    39  36  87 NW10      30.41R
ERIE MUNI ARPT FLURRIES  38  33  83 CALM      30.47S
BOULDER MUN AP LGT RAIN  37  32  81 SW5       30.41R
CENTENNIAL     LGT RAIN  34  33  96 W8        30.40R FOG     WCI  27
BROOMFIELD     CLOUDY    36  32  87 W7        30.41S
FORT COLLINS   CLOUDY    40  28  62 E5        30.41R
LONGMONT       LGT RAIN  41  35  79 SE3       30.43R
$$

COZ041-046-047-076>085-087-088-250300-
...PIKES PEAK/PALMER DIVIDE AND SOUTHERN FOOTHILLS...

CITY           SKY/WX    TMP DP  RH WIND       PRES   REMARKS
COLO. SPRINGS  LGT SNOW  33  32  96 NW8       30.40R VSB 1   WCI  26
A. F. ACADEMY  LGT SNOW  32  30  94 NW12      30.39R FOG     WCI  23
SCHRIEVER AFB  NOT AVBL
CHEYENNE MTN   LGT SNOW  30  28  94 N12       30.32R VSB 1   WCI  20
ELLICOTT       SNOW     N/A N/A N/A N8        30.37R
FALCON         LGT SNOW  32  30  93 N5        30.40R WCI  27
FORT CARSON    LGT SNOW  34  33  97 N3        30.39R
LIMON          CLOUDY    36  31  82 N9        30.39R
MONUMENT HILL  LGT SNOW  30  28  93 NW10      30.40S WCI  21
CANON CITY     CLOUDY    36  36 100 S8        30.41R
WALSENBURG     NOT AVBL
TRINIDAD       CLOUDY    36  32  85 N12       30.39R
$$

COZ042>045-048>051-090-091-250300-
...NORTHEAST COLORADO...

CITY           SKY/WX    TMP DP  RH WIND       PRES   REMARKS
GREELEY ARPT   CLOUDY    40  28  62 E7        30.42R
AKRON          CLOUDY    37  30  75 N13       30.38R
BURLINGTON     CLOUDY    38  34  85 N12       30.38R
WRAY           CLOUDY    41  32  70 N16       30.39R
YUMA           FAIR      36  30  80 N9        30.38R
STERLING       NOT AVBL
HOLYOKE        MOCLDY    41  32  70 N16G22    30.38R
FORT MORGAN    CLOUDY    40  26  58 N9        30.41R
$$

COZ086-089-092>099-250300-
...SOUTHEAST COLORADO...

CITY           SKY/WX    TMP DP  RH WIND       PRES   REMARKS
PUEBLO         LGT RAIN  36  35  96 SW5       30.42R
LA JUNTA       RAIN      38  35  89 N10       30.39S
LAMAR          RAIN      37  33  85 N12G24    30.36R
SPRINGFIELD      N/A     39  34  82 N28G37    30.33R
$$




USA.gov is the U.S. government's official web portal to all federal, state and local government web resources and services.